Location: ???????????
(54.6970°N, 39.1477°E)
Time: 06:20:13
(UTC+00:00)

COSMOS 2428 - Pass Details

Date: 19 May 2025
Orbit: 845 x 853 km, 70.9° (Epoch: 15 June)

Event Time Altitude Azimuth Distance (km) Brightness Sun altitude
Rises 21:12:23 0° 325° (NW) 3,434 6.9 -15.3°
Reaches altitude 10° 21:14:58 10° 332° (NNW) 2,496 6.2 -15.3°
Maximum altitude 21:20:29 47° 46° (NE) 1,132 3.7 -15.3°
Drops below altitude 10° 21:25:59 10° 119° (ESE) 2,485 4.9 -15.3°
Enters shadow 21:27:59 - 125° (SE) 3,215 5.4 -15.3°
